Location: Lixville
(37.5770°N, 89.9118°W)
Time: 20:31:53
(UTC+00:00)

Transit 4A - All Passes

Search period start: 08 November 2024 00:00
Search period end: 18 November 2024 00:00
Orbit: 863 x 979 km, 66.8° (Epoch: 08 November)

Date Brightness Start Highest point End Pass type
(mag) Time Alt. Az. Time Alt. Az. Time Alt. Az.
08 Nov - 04:03:04 10° N 04:07:29 19° NE 04:11:54 10° E night (unlit)
08 Nov - 05:48:10 10° NNW 05:54:35 83° WSW 06:00:58 10° SSE night (unlit)
08 Nov - 07:38:10 10° W 07:39:56 11° W 07:41:43 10° WSW night (unlit)
08 Nov - 19:07:38 10° SSE 19:12:36 29° ESE 19:17:45 10° NE daylight
08 Nov - 20:53:04 10° SW 20:58:41 42° NW 21:04:31 10° NNE daylight
09 Nov - 04:11:28 10° N 04:16:45 26° NE 04:22:01 10° ESE night (unlit)
09 Nov - 05:57:13 10° NW 06:03:27 56° WSW 06:09:39 10° S night (unlit)
09 Nov - 19:15:46 10° S 19:21:20 44° ESE 19:27:06 10° NE daylight
09 Nov - 21:02:39 10° WSW 21:07:49 30° NW 21:13:09 10° N daylight
10 Nov - 04:20:04 10° NNW 04:25:56 37° NE 04:31:47 10° ESE night (unlit)
10 Nov - 06:06:26 10° NW 06:12:14 37° WSW 06:18:01 10° S night (unlit)
10 Nov - 19:24:17 10° SSW 19:30:09 68° ESE 19:36:15 10° NNE daylight
10 Nov - 21:12:34 10° W 21:17:03 21° NW 21:21:39 10° N daylight
11 Nov - 02:45:39 10° NNE 02:47:09 11° NE 02:48:40 10° NE visible
11 Nov - 04:28:46 10° NNW 04:35:01 53° ENE 04:41:14 10° SE night (unlit)
11 Nov - 06:15:55 10° NW 06:20:58 25° WSW 06:25:59 10° SSW night (unlit)
11 Nov - 17:50:58 10° SE 17:53:37 13° E 17:56:16 10° ENE daylight
11 Nov - 19:33:05 10° SSW 19:39:02 82° WNW 19:45:14 10° NNE daylight
11 Nov - 21:22:57 10° WNW 21:26:23 15° NW 21:29:53 10° N daylight
12 Nov - 02:53:03 10° N 02:56:37 15° NE 03:00:10 10° ENE visible
12 Nov - 04:37:35 10° NNW 04:44:01 76° ENE 04:50:24 10° SSE night (unlit)
12 Nov - 06:25:55 10° WNW 06:29:37 16° WSW 06:33:18 10° SW night (unlit)
12 Nov - 17:57:53 10° SSE 18:02:13 21° ESE 18:06:39 10° ENE daylight
12 Nov - 19:42:10 10° SW 19:48:01 56° WNW 19:54:05 10° NNE daylight
12 Nov - 21:34:19 10° NW 21:35:49 11° NW 21:37:19 10° NNW daylight
13 Nov - 03:01:14 10° N 03:05:57 21° NE 03:10:38 10° E visible
13 Nov - 04:46:32 10° NNW 04:52:56 75° WSW 04:59:17 10° SSE night (unlit)
13 Nov - 18:05:41 10° S 18:10:54 33° ESE 18:16:15 10° NE daylight
13 Nov - 19:51:32 10° WSW 19:57:04 38° NW 20:02:49 10° NNE daylight
14 Nov - 03:09:42 10° N 03:15:11 29° NE 03:20:38 10° ESE visible
14 Nov - 04:55:38 10° NW 05:01:46 50° WSW 05:07:53 10° S night (unlit)
14 Nov - 18:13:56 10° S 18:19:38 50° ESE 18:25:33 10° NE daylight
14 Nov - 20:01:12 10° WSW 20:06:14 27° NW 20:11:25 10° N daylight
15 Nov - 03:18:20 10° NNW 03:24:20 41° NE 03:30:18 10° SE visible
15 Nov - 05:04:55 10° NW 05:10:32 33° WSW 05:16:09 10° S night (unlit)
15 Nov - 18:22:31 10° SSW 18:28:27 76° ESE 18:34:38 10° NNE daylight
15 Nov - 20:11:14 10° W 20:15:29 19° NW 20:19:51 10° N daylight
16 Nov - 01:43:20 10° NNE 01:45:39 12° NE 01:47:57 10° ENE visible
16 Nov - 03:27:04 10° NNW 03:33:23 58° ENE 03:39:40 10° SE visible
16 Nov - 05:14:29 10° WNW 05:19:14 22° WSW 05:23:57 10° SSW night (unlit)
16 Nov - 16:48:33 10° SE 16:51:50 15° ESE 16:55:11 10° ENE daylight
16 Nov - 18:31:24 10° SSW 18:37:22 74° WNW 18:43:34 10° NNE daylight
16 Nov - 20:21:46 10° WNW 20:24:50 14° NW 20:27:57 10° N daylight
17 Nov - 01:51:07 10° N 01:55:04 17° NE 01:59:00 10° E visible
17 Nov - 03:35:55 10° NNW 03:42:22 84° ENE 03:48:45 10° SSE night (unlit)
17 Nov - 05:24:43 10° WNW 05:27:51 14° WSW 05:30:58 10° SW night (unlit)
17 Nov - 16:55:49 10° SSE 17:00:28 24° ESE 17:05:13 10° NE daylight
17 Nov - 18:40:34 10° SW 18:46:21 50° WNW 18:52:22 10° NNE daylight
